Time,TemperatureF,DewpointF,PressureIn,WindDirection,WindDirectionDegrees,WindSpeedMPH,WindSpeedGustMPH,Humidity,HourlyPrecipIn,Conditions,Clouds,dailyrainin,SoftwareType,DateUTC
2013-10-20 00:03:00,53.6,53.6,29.95,NW,307,0.0,0.0,100,0.00,,,0.00,Wunderground v.1.15,2013-10-20 07:03:00,
2013-10-20 00:09:00,53.5,53.5,29.95,NW,307,0.0,1.0,100,0.00,,,0.00,Wunderground v.1.15,2013-10-20 07:09:00,
2013-10-20 00:14:00,53.5,53.5,29.95,NW,307,0.0,0.0,100,0.00,,,0.00,Wunderground v.1.15,2013-10-20 07:14:00,
2013-10-20 00:20:00,53.3,53.3,29.95,NW,307,0.0,0.0,100,0.00,,,0.00,Wunderground v.1.15,2013-10-20 07:20:00,
2013-10-20 00:25:00,53.3,53.3,29.95,NW,307,0.0,0.0,100,0.00,,,0.00,Wunderground v.1.15,2013-10-20 07:25:00,
2013-10-20 00:30:00,53.3,53.3,29.95,NW,307,0.0,0.0,100,0.00,,,0.00,Wunderground v.1.15,2013-10-20 07:30:00,
2013-10-20 00:36:00,53.3,53.3,29.95,NW,307,0.0,0.0,100,0.00,,,0.00,Wunderground v.1.15,2013-10-20 07:36:00,
2013-10-20 00:41:00,53.2,53.2,29.95,NW,307,0.0,0.0,100,0.00,,,0.00,Wunderground v.1.15,2013-10-20 07:41:00,
2013-10-20 00:46:00,53.2,53.2,29.94,NW,307,0.0,0.0,100,0.00,,,0.00,Wunderground v.1.15,2013-10-20 07:46:00,
2013-10-20 00:52:00,53.2,53.2,29.94,NW,307,0.0,0.0,100,0.00,,,0.00,Wunderground v.1.15,2013-10-20 07:52:00,
2013-10-20 00:57:00,53.2,53.2,29.94,NW,307,0.0,0.0,100,0.00,,,0.00,Wunderground v.1.15,2013-10-20 07:57:00,
2013-10-20 01:02:00,53.2,53.2,29.94,NW,307,0.0,0.0,100,0.00,,,0.00,Wunderground v.1.15,2013-10-20 08:02:00,
2013-10-20 01:08:00,53.2,53.2,29.94,NW,307,0.0,0.0,100,0.00,,,0.00,Wunderground v.1.15,2013-10-20 08:08:00,
2013-10-20 01:13:00,53.1,53.1,29.94,NW,307,0.0,0.0,100,0.00,,,0.00,Wunderground v.1.15,2013-10-20 08:13:00,
2013-10-20 01:19:00,53.1,53.1,29.94,NW,307,0.0,0.0,100,0.00,,,0.00,Wunderground v.1.15,2013-10-20 08:19:00,
2013-10-20 01:24:00,53.1,53.1,29.94,NW,307,0.0,0.0,100,0.00,,,0.00,Wunderground v.1.15,2013-10-20 08:24:00,
2013-10-20 01:29:00,53.1,53.1,29.94,NW,307,0.0,0.0,100,0.00,,,0.00,Wunderground v.1.15,2013-10-20 08:29:00,
2013-10-20 01:35:00,53.1,53.1,29.94,NW,307,0.0,0.0,100,0.00,,,0.00,Wunderground v.1.15,2013-10-20 08:35:00,
2013-10-20 01:40:00,52.9,52.9,29.94,NW,307,0.0,0.0,100,0.00,,,0.00,Wunderground v.1.15,2013-10-20 08:40:00,
2013-10-20 01:45:00,52.9,52.9,29.94,NW,307,0.0,0.0,100,0.00,,,0.00,Wunderground v.1.15,2013-10-20 08:45:00,
2013-10-20 01:50:00,52.8,52.8,29.93,NW,307,0.0,0.0,100,0.00,,,0.00,Wunderground v.1.15,2013-10-20 08:50:00,
2013-10-20 01:56:00,52.8,52.8,29.93,NW,307,1.0,1.0,100,0.00,,,0.00,Wunderground v.1.15,2013-10-20 08:56:00,
2013-10-20 02:01:00,52.5,52.5,29.93,NW,307,0.0,0.0,100,0.00,,,0.00,Wunderground v.1.15,2013-10-20 09:01:00,
2013-10-20 02:06:00,52.5,52.5,29.93,NW,307,0.0,0.0,100,0.00,,,0.00,Wunderground v.1.15,2013-10-20 09:06:00,
2013-10-20 02:11:00,52.3,52.3,29.93,NW,307,0.0,0.0,100,0.00,,,0.00,Wunderground v.1.15,2013-10-20 09:11:00,
2013-10-20 02:16:00,52.2,52.2,29.92,NW,307,0.0,0.0,100,0.00,,,0.00,Wunderground v.1.15,2013-10-20 09:16:00,
2013-10-20 02:21:00,52.0,52.0,29.92,NW,307,0.0,0.0,100,0.00,,,0.00,Wunderground v.1.15,2013-10-20 09:21:00,
2013-10-20 02:26:00,52.0,52.0,29.92,NW,307,0.0,0.0,100,0.00,,,0.00,Wunderground v.1.15,2013-10-20 09:26:00,
2013-10-20 02:31:00,51.9,51.9,29.92,NW,307,0.0,0.0,100,0.00,,,0.00,Wunderground v.1.15,2013-10-20 09:31:00,
2013-10-20 02:36:00,51.9,51.9,29.92,NW,307,0.0,0.0,100,0.00,,,0.00,Wunderground v.1.15,2013-10-20 09:36:00,
2013-10-20 02:41:00,51.7,51.7,29.92,NW,307,0.0,0.0,100,0.00,,,0.00,Wunderground v.1.15,2013-10-20 09:41:00,
2013-10-20 02:46:00,51.6,51.6,29.92,NW,307,0.0,0.0,100,0.00,,,0.00,Wunderground v.1.15,2013-10-20 09:46:00,
2013-10-20 02:51:00,51.6,51.6,29.92,NW,307,0.0,0.0,100,0.00,,,0.00,Wunderground v.1.15,2013-10-20 09:51:00,
2013-10-20 02:56:00,51.6,51.6,29.92,NW,307,0.0,1.0,100,0.00,,,0.00,Wunderground v.1.15,2013-10-20 09:56:00,
2013-10-20 03:01:00,51.6,51.6,29.91,NW,307,0.0,1.0,100,0.00,,,0.00,Wunderground v.1.15,2013-10-20 10:01:00,
2013-10-20 03:06:00,51.4,51.4,29.91,NW,307,0.0,1.0,100,0.00,,,0.00,Wunderground v.1.15,2013-10-20 10:06:00,
2013-10-20 03:11:00,51.4,51.4,29.91,NW,307,0.0,0.0,100,0.00,,,0.00,Wunderground v.1.15,2013-10-20 10:11:00,
2013-10-20 03:16:00,51.4,51.4,29.90,NW,307,0.0,1.0,100,0.00,,,0.00,Wunderground v.1.15,2013-10-20 10:16:00,
2013-10-20 03:21:00,51.3,51.3,29.90,NW,307,0.0,0.0,100,0.00,,,0.00,Wunderground v.1.15,2013-10-20 10:21:00,
2013-10-20 03:26:00,51.3,51.3,29.90,NW,307,0.0,0.0,100,0.00,,,0.00,Wunderground v.1.15,2013-10-20 10:26:00,
2013-10-20 03:31:00,51.3,51.3,29.90,NW,307,0.0,0.0,100,0.00,,,0.00,Wunderground v.1.15,2013-10-20 10:31:00,
2013-10-20 03:36:00,51.1,51.1,29.90,NW,307,0.0,1.0,100,0.00,,,0.00,Wunderground v.1.15,2013-10-20 10:36:00,
2013-10-20 03:41:00,51.0,51.0,29.90,NW,307,0.0,0.0,100,0.00,,,0.00,Wunderground v.1.15,2013-10-20 10:41:00,
2013-10-20 03:46:00,50.8,50.8,29.89,NW,307,0.0,0.0,100,0.00,,,0.00,Wunderground v.1.15,2013-10-20 10:46:00,
2013-10-20 03:51:00,50.8,50.8,29.89,NW,307,0.0,0.0,100,0.00,,,0.00,Wunderground v.1.15,2013-10-20 10:51:00,
2013-10-20 03:56:00,50.7,50.7,29.89,NW,307,0.0,0.0,100,0.00,,,0.00,Wunderground v.1.15,2013-10-20 10:56:00,
2013-10-20 04:01:00,50.5,50.5,29.89,NW,307,0.0,0.0,100,0.00,,,0.00,Wunderground v.1.15,2013-10-20 11:01:00,
2013-10-20 04:06:00,50.5,50.5,29.89,NW,307,0.0,0.0,100,0.00,,,0.00,Wunderground v.1.15,2013-10-20 11:06:00,
2013-10-20 04:11:00,50.4,50.4,29.89,NW,307,0.0,0.0,100,0.00,,,0.00,Wunderground v.1.15,2013-10-20 11:11:00,
2013-10-20 04:16:00,50.4,50.4,29.89,NW,307,0.0,0.0,100,0.00,,,0.00,Wunderground v.1.15,2013-10-20 11:16:00,
2013-10-20 04:21:00,50.5,50.5,29.89,NW,307,0.0,0.0,100,0.00,,,0.00,Wunderground v.1.15,2013-10-20 11:21:00,
2013-10-20 04:26:00,50.5,50.5,29.89,NW,307,0.0,0.0,100,0.00,,,0.00,Wunderground v.1.15,2013-10-20 11:26:00,
2013-10-20 04:31:00,50.4,50.4,29.88,NW,307,0.0,0.0,100,0.00,,,0.00,Wunderground v.1.15,2013-10-20 11:31:00,
2013-10-20 04:36:00,50.4,50.4,29.88,NW,307,0.0,0.0,100,0.00,,,0.00,Wunderground v.1.15,2013-10-20 11:36:00,
2013-10-20 04:41:00,50.2,50.2,29.88,NW,307,0.0,0.0,100,0.00,,,0.00,Wunderground v.1.15,2013-10-20 11:41:00,
2013-10-20 04:47:00,50.2,50.2,29.88,NW,307,0.0,0.0,100,0.00,,,0.00,Wunderground v.1.15,2013-10-20 11:47:00,
2013-10-20 04:52:00,50.2,50.2,29.88,NW,307,0.0,0.0,100,0.00,,,0.00,Wunderground v.1.15,2013-10-20 11:52:00,
2013-10-20 04:57:00,50.1,50.1,29.88,NW,307,0.0,0.0,100,0.00,,,0.00,Wunderground v.1.15,2013-10-20 11:57:00,
2013-10-20 05:02:00,50.1,50.1,29.88,NW,307,0.0,0.0,100,0.00,,,0.00,Wunderground v.1.15,2013-10-20 12:02:00,
2013-10-20 05:07:00,49.9,49.9,29.88,NW,307,0.0,1.0,100,0.00,,,0.00,Wunderground v.1.15,2013-10-20 12:07:00,
2013-10-20 05:12:00,49.8,49.8,29.88,NW,307,0.0,0.0,100,0.00,,,0.00,Wunderground v.1.15,2013-10-20 12:12:00,
2013-10-20 05:17:00,49.6,49.6,29.89,NW,307,0.0,1.0,100,0.00,,,0.00,Wunderground v.1.15,2013-10-20 12:17:00,
2013-10-20 05:22:00,49.8,49.8,29.89,NW,310,0.0,1.0,100,0.00,,,0.00,Wunderground v.1.15,2013-10-20 12:22:00,
2013-10-20 05:27:00,49.8,49.8,29.89,NW,310,0.0,1.0,100,0.00,,,0.00,Wunderground v.1.15,2013-10-20 12:27:00,
2013-10-20 05:32:00,49.9,49.9,29.89,NW,310,0.0,1.0,100,0.00,,,0.00,Wunderground v.1.15,2013-10-20 12:32:00,
2013-10-20 05:37:00,50.1,50.1,29.89,NW,310,0.0,1.0,100,0.00,,,0.00,Wunderground v.1.15,2013-10-20 12:37:00,
2013-10-20 05:42:00,50.2,50.2,29.89,NNW,347,0.0,2.0,100,0.00,,,0.00,Wunderground v.1.15,2013-10-20 12:42:00,
2013-10-20 05:47:00,50.4,50.4,29.89,ENE,68,0.0,4.0,100,0.00,,,0.00,Wunderground v.1.15,2013-10-20 12:47:00,
2013-10-20 05:52:00,50.4,50.4,29.89,ENE,67,2.0,3.0,100,0.00,,,0.00,Wunderground v.1.15,2013-10-20 12:52:00,
2013-10-20 05:57:00,50.5,50.5,29.89,ENE,67,0.0,3.0,100,0.00,,,0.00,Wunderground v.1.15,2013-10-20 12:57:00,
2013-10-20 06:02:00,50.5,50.5,29.89,ENE,67,0.0,0.0,100,0.00,,,0.00,Wunderground v.1.15,2013-10-20 13:02:00,
2013-10-20 06:07:00,50.5,50.5,29.89,ENE,67,0.0,0.0,100,0.00,,,0.00,Wunderground v.1.15,2013-10-20 13:07:00,
2013-10-20 06:12:00,50.4,50.4,29.89,ENE,67,0.0,0.0,100,0.00,,,0.00,Wunderground v.1.15,2013-10-20 13:12:00,
2013-10-20 06:17:00,50.4,50.4,29.89,ENE,67,0.0,0.0,100,0.00,,,0.00,Wunderground v.1.15,2013-10-20 13:17:00,
2013-10-20 06:22:00,50.2,50.2,29.89,ENE,67,0.0,1.0,100,0.00,,,0.00,Wunderground v.1.15,2013-10-20 13:22:00,
2013-10-20 06:27:00,50.1,50.1,29.89,ENE,67,0.0,1.0,100,0.00,,,0.00,Wunderground v.1.15,2013-10-20 13:27:00,
2013-10-20 06:32:00,49.9,49.9,29.89,ENE,67,0.0,0.0,100,0.00,,,0.00,Wunderground v.1.15,2013-10-20 13:32:00,
2013-10-20 06:37:00,49.8,49.8,29.89,ENE,67,0.0,0.0,100,0.00,,,0.00,Wunderground v.1.15,2013-10-20 13:37:00,
2013-10-20 06:42:00,49.8,49.8,29.89,ENE,67,0.0,0.0,100,0.00,,,0.00,Wunderground v.1.15,2013-10-20 13:42:00,
2013-10-20 06:47:00,49.6,49.6,29.89,ENE,67,0.0,0.0,100,0.00,,,0.00,Wunderground v.1.15,2013-10-20 13:47:00,
2013-10-20 06:52:00,49.6,49.6,29.89,ENE,67,0.0,0.0,100,0.00,,,0.00,Wunderground v.1.15,2013-10-20 13:52:00,
2013-10-20 06:57:00,49.6,49.6,29.89,ENE,67,0.0,0.0,100,0.00,,,0.00,Wunderground v.1.15,2013-10-20 13:57:00,
2013-10-20 07:02:00,49.5,49.5,29.90,ENE,71,0.0,2.0,100,0.00,,,0.00,Wunderground v.1.15,2013-10-20 14:02:00,
2013-10-20 07:07:00,49.5,49.5,29.90,ENE,71,0.0,2.0,100,0.00,,,0.00,Wunderground v.1.15,2013-10-20 14:07:00,
2013-10-20 07:12:00,49.4,49.4,29.90,ENE,71,0.0,0.0,100,0.00,,,0.00,Wunderground v.1.15,2013-10-20 14:12:00,
2013-10-20 07:17:00,49.4,49.4,29.90,ENE,71,0.0,0.0,100,0.00,,,0.00,Wunderground v.1.15,2013-10-20 14:17:00,
2013-10-20 07:22:00,49.4,49.4,29.90,ENE,71,0.0,0.0,100,0.00,,,0.00,Wunderground v.1.15,2013-10-20 14:22:00,
2013-10-20 07:27:00,49.2,49.2,29.90,ENE,71,0.0,1.0,100,0.00,,,0.00,Wunderground v.1.15,2013-10-20 14:27:00,
2013-10-20 07:32:00,48.9,48.9,29.90,ENE,71,0.0,2.0,100,0.00,,,0.00,Wunderground v.1.15,2013-10-20 14:32:00,
2013-10-20 07:37:00,48.8,48.8,29.90,ENE,71,0.0,2.0,100,0.00,,,0.00,Wunderground v.1.15,2013-10-20 14:37:00,
2013-10-20 07:42:00,48.8,48.8,29.90,ENE,71,0.0,0.0,100,0.00,,,0.00,Wunderground v.1.15,2013-10-20 14:42:00,
2013-10-20 07:47:00,48.8,48.8,29.90,ENE,71,0.0,0.0,100,0.00,,,0.00,Wunderground v.1.15,2013-10-20 14:47:00,
2013-10-20 07:52:00,48.6,48.6,29.90,ENE,71,0.0,1.0,100,0.00,,,0.00,Wunderground v.1.15,2013-10-20 14:52:00,
2013-10-20 07:57:00,48.6,48.6,29.90,ENE,70,0.0,2.0,100,0.00,,,0.00,Wunderground v.1.15,2013-10-20 14:57:00,
2013-10-20 08:02:00,48.8,48.8,29.90,ENE,70,0.0,1.0,100,0.00,,,0.00,Wunderground v.1.15,2013-10-20 15:02:00,
2013-10-20 08:07:00,48.9,48.9,29.90,ENE,70,0.0,1.0,100,0.00,,,0.00,Wunderground v.1.15,2013-10-20 15:07:00,
2013-10-20 08:12:00,48.9,48.9,29.90,ENE,70,0.0,0.0,100,0.00,,,0.00,Wunderground v.1.15,2013-10-20 15:12:00,
2013-10-20 08:17:00,48.9,48.9,29.90,ENE,70,0.0,0.0,100,0.00,,,0.00,Wunderground v.1.15,2013-10-20 15:17:00,
2013-10-20 08:22:00,49.1,49.1,29.90,ENE,70,0.0,0.0,100,0.00,,,0.00,Wunderground v.1.15,2013-10-20 15:22:00,
2013-10-20 08:27:00,49.2,49.2,29.90,ENE,70,0.0,0.0,100,0.00,,,0.00,Wunderground v.1.15,2013-10-20 15:27:00,
2013-10-20 08:32:00,49.2,49.2,29.91,ENE,70,0.0,1.0,100,0.00,,,0.00,Wunderground v.1.15,2013-10-20 15:32:00,
2013-10-20 08:37:00,49.4,49.4,29.91,ENE,70,0.0,1.0,100,0.00,,,0.00,Wunderground v.1.15,2013-10-20 15:37:00,
2013-10-20 08:42:00,49.6,49.6,29.91,ENE,70,0.0,0.0,100,0.00,,,0.00,Wunderground v.1.15,2013-10-20 15:42:00,
2013-10-20 08:47:00,49.9,49.9,29.91,ENE,70,0.0,1.0,100,0.00,,,0.00,Wunderground v.1.15,2013-10-20 15:47:00,
2013-10-20 08:52:00,50.1,50.1,29.91,NE,50,2.0,3.0,100,0.00,,,0.00,Wunderground v.1.15,2013-10-20 15:52:00,
2013-10-20 08:57:00,49.9,49.9,29.91,NNW,335,1.0,5.0,100,0.00,,,0.00,Wunderground v.1.15,2013-10-20 15:57:00,
2013-10-20 09:02:00,50.1,50.1,29.92,East,83,0.0,2.0,100,0.00,,,0.00,Wunderground v.1.15,2013-10-20 16:02:00,
2013-10-20 09:07:00,50.2,50.2,29.92,North,1,1.0,3.0,100,0.00,,,0.00,Wunderground v.1.15,2013-10-20 16:07:00,
2013-10-20 09:12:00,50.2,50.2,29.92,NE,43,1.0,3.0,100,0.00,,,0.00,Wunderground v.1.15,2013-10-20 16:12:00,
2013-10-20 09:17:00,50.5,50.5,29.92,NNW,332,0.0,3.0,100,0.00,,,0.00,Wunderground v.1.15,2013-10-20 16:17:00,
2013-10-20 09:22:00,51.0,51.0,29.92,NE,46,1.0,1.0,100,0.00,,,0.00,Wunderground v.1.15,2013-10-20 16:22:00,
2013-10-20 09:27:00,51.1,51.1,29.92,NE,46,0.0,2.0,100,0.00,,,0.00,Wunderground v.1.15,2013-10-20 16:27:00,
2013-10-20 09:32:00,51.3,51.3,29.92,NW,323,3.0,3.0,100,0.00,,,0.00,Wunderground v.1.15,2013-10-20 16:32:00,
2013-10-20 09:36:00,51.4,51.4,29.92,North,6,0.0,4.0,100,0.00,,,0.00,Wunderground v.1.15,2013-10-20 16:36:00,
2013-10-20 09:41:00,51.6,51.6,29.92,North,0,3.0,3.0,100,0.00,,,0.00,Wunderground v.1.15,2013-10-20 16:41:00,
2013-10-20 09:46:00,51.4,51.4,29.92,NNE,13,1.0,6.0,100,0.00,,,0.00,Wunderground v.1.15,2013-10-20 16:46:00,
2013-10-20 09:51:00,51.7,51.7,29.92,North,349,2.0,4.0,100,0.00,,,0.00,Wunderground v.1.15,2013-10-20 16:51:00,
2013-10-20 09:56:00,51.9,51.9,29.92,North,1,1.0,4.0,100,0.00,,,0.00,Wunderground v.1.15,2013-10-20 16:56:00,
2013-10-20 10:01:00,52.3,52.3,29.92,North,359,0.0,2.0,100,0.00,,,0.00,Wunderground v.1.15,2013-10-20 17:01:00,
2013-10-20 10:06:00,52.8,52.8,29.92,ENE,57,0.0,3.0,100,0.00,,,0.00,Wunderground v.1.15,2013-10-20 17:06:00,
2013-10-20 10:11:00,53.3,53.3,29.92,SSE,153,0.0,2.0,100,0.00,,,0.00,Wunderground v.1.15,2013-10-20 17:11:00,
2013-10-20 10:16:00,53.5,53.5,29.92,NNE,31,2.0,4.0,100,0.00,,,0.00,Wunderground v.1.15,2013-10-20 17:16:00,
2013-10-20 10:21:00,53.6,53.6,29.92,NNE,25,0.0,2.0,100,0.00,,,0.00,Wunderground v.1.15,2013-10-20 17:21:00,
2013-10-20 10:26:00,53.6,53.6,29.92,NNW,342,0.0,6.0,100,0.00,,,0.00,Wunderground v.1.15,2013-10-20 17:26:00,
2013-10-20 10:31:00,54.2,54.2,29.92,North,0,0.0,1.0,100,0.00,,,0.00,Wunderground v.1.15,2013-10-20 17:31:00,
2013-10-20 10:36:00,54.8,54.8,29.92,East,86,0.0,4.0,100,0.00,,,0.00,Wunderground v.1.15,2013-10-20 17:36:00,
2013-10-20 10:41:00,55.4,55.4,29.92,ENE,70,0.0,3.0,100,0.00,,,0.00,Wunderground v.1.15,2013-10-20 17:41:00,
2013-10-20 10:46:00,56.0,56.0,29.92,North,356,3.0,3.0,100,0.00,,,0.00,Wunderground v.1.15,2013-10-20 17:46:00,
2013-10-20 10:51:00,56.0,56.0,29.92,SSW,205,0.0,2.0,100,0.00,,,0.00,Wunderground v.1.15,2013-10-20 17:51:00,
2013-10-20 10:56:00,56.5,56.2,29.92,North,351,0.0,4.0,99,0.00,,,0.00,Wunderground v.1.15,2013-10-20 17:56:00,
2013-10-20 11:01:00,57.0,55.9,29.92,NW,304,0.0,1.0,96,0.00,,,0.00,Wunderground v.1.15,2013-10-20 18:01:00,
2013-10-20 11:06:00,58.0,56.6,29.92,West,269,2.0,3.0,95,0.00,,,0.00,Wunderground v.1.15,2013-10-20 18:06:00,
2013-10-20 11:11:00,58.6,56.3,29.92,WSW,240,0.0,2.0,92,0.00,,,0.00,Wunderground v.1.15,2013-10-20 18:11:00,
2013-10-20 11:16:00,59.6,56.7,29.92,NNE,19,0.0,3.0,90,0.00,,,0.00,Wunderground v.1.15,2013-10-20 18:16:00,
2013-10-20 11:21:00,60.2,56.0,29.92,ENE,65,1.0,2.0,86,0.00,,,0.00,Wunderground v.1.15,2013-10-20 18:21:00,
2013-10-20 11:26:00,60.5,55.6,29.92,North,0,1.0,6.0,84,0.00,,,0.00,Wunderground v.1.15,2013-10-20 18:26:00,
2013-10-20 11:31:00,60.9,55.7,29.92,WSW,238,0.0,1.0,83,0.00,,,0.00,Wunderground v.1.15,2013-10-20 18:31:00,
2013-10-20 11:36:00,61.3,55.8,29.92,East,101,0.0,1.0,82,0.00,,,0.00,Wunderground v.1.15,2013-10-20 18:36:00,
2013-10-20 11:41:00,62.0,55.4,29.92,NW,317,0.0,2.0,79,0.00,,,0.00,Wunderground v.1.15,2013-10-20 18:41:00,
2013-10-20 11:46:00,61.8,55.2,29.91,NNW,345,0.0,5.0,79,0.00,,,0.00,Wunderground v.1.15,2013-10-20 18:46:00,
2013-10-20 11:51:00,62.0,55.4,29.91,SSE,149,0.0,2.0,79,0.00,,,0.00,Wunderground v.1.15,2013-10-20 18:51:00,
2013-10-20 11:56:00,61.8,54.9,29.91,ESE,107,0.0,5.0,78,0.00,,,0.00,Wunderground v.1.15,2013-10-20 18:56:00,
2013-10-20 12:01:00,62.0,55.1,29.90,SW,230,0.0,3.0,78,0.00,,,0.00,Wunderground v.1.15,2013-10-20 19:01:00,
2013-10-20 12:06:00,62.3,55.4,29.90,WNW,286,1.0,3.0,78,0.00,,,0.00,Wunderground v.1.15,2013-10-20 19:06:00,
2013-10-20 12:11:00,62.4,54.7,29.90,West,259,3.0,5.0,76,0.00,,,0.00,Wunderground v.1.15,2013-10-20 19:11:00,
2013-10-20 12:16:00,62.9,54.9,29.90,North,0,3.0,5.0,75,0.00,,,0.00,Wunderground v.1.15,2013-10-20 19:16:00,
2013-10-20 12:21:00,63.1,55.0,29.90,SSE,160,0.0,2.0,75,0.00,,,0.00,Wunderground v.1.15,2013-10-20 19:21:00,
2013-10-20 12:26:00,63.2,54.8,29.90,West,276,0.0,4.0,74,0.00,,,0.00,Wunderground v.1.15,2013-10-20 19:26:00,
2013-10-20 12:31:00,63.1,54.7,29.89,SSW,194,1.0,2.0,74,0.00,,,0.00,Wunderground v.1.15,2013-10-20 19:31:00,
2013-10-20 12:36:00,63.5,55.1,29.89,SW,216,0.0,3.0,74,0.00,,,0.00,Wunderground v.1.15,2013-10-20 19:36:00,
2013-10-20 12:41:00,64.3,55.5,29.89,SSE,167,2.0,2.0,73,0.00,,,0.00,Wunderground v.1.15,2013-10-20 19:41:00,
2013-10-20 12:46:00,64.5,55.3,29.88,WNW,282,0.0,4.0,72,0.00,,,0.00,Wunderground v.1.15,2013-10-20 19:46:00,
2013-10-20 12:51:00,64.3,55.1,29.88,WNW,302,1.0,2.0,72,0.00,,,0.00,Wunderground v.1.15,2013-10-20 19:51:00,
2013-10-20 12:56:00,64.5,55.3,29.88,East,95,0.0,5.0,72,0.00,,,0.00,Wunderground v.1.15,2013-10-20 19:56:00,
2013-10-20 13:01:00,64.7,55.1,29.87,North,1,0.0,5.0,71,0.00,,,0.00,Wunderground v.1.15,2013-10-20 20:01:00,
2013-10-20 13:07:00,65.3,55.3,29.87,WSW,256,2.0,5.0,70,0.00,,,0.00,Wunderground v.1.15,2013-10-20 20:07:00,
2013-10-20 13:12:00,66.0,55.5,29.87,North,0,3.0,5.0,69,0.00,,,0.00,Wunderground v.1.15,2013-10-20 20:12:00,
2013-10-20 13:17:00,66.6,56.1,29.86,SSW,205,0.0,5.0,69,0.00,,,0.00,Wunderground v.1.15,2013-10-20 20:17:00,
2013-10-20 13:22:00,67.6,56.2,29.86,WNW,288,3.0,4.0,67,0.00,,,0.00,Wunderground v.1.15,2013-10-20 20:22:00,
2013-10-20 13:27:00,67.6,56.2,29.86,SSW,200,0.0,4.0,67,0.00,,,0.00,Wunderground v.1.15,2013-10-20 20:27:00,
2013-10-20 13:32:00,67.4,56.1,29.85,North,352,3.0,4.0,67,0.00,,,0.00,Wunderground v.1.15,2013-10-20 20:32:00,
2013-10-20 13:37:00,67.6,56.2,29.85,West,259,0.0,4.0,67,0.00,,,0.00,Wunderground v.1.15,2013-10-20 20:37:00,
2013-10-20 13:42:00,67.9,55.7,29.85,SSE,151,0.0,1.0,65,0.00,,,0.00,Wunderground v.1.15,2013-10-20 20:42:00,
2013-10-20 13:47:00,68.1,55.5,29.85,North,352,0.0,4.0,64,0.00,,,0.00,Wunderground v.1.15,2013-10-20 20:47:00,
2013-10-20 13:52:00,68.1,55.5,29.85,West,281,4.0,4.0,64,0.00,,,0.00,Wunderground v.1.15,2013-10-20 20:52:00,
2013-10-20 13:57:00,67.8,55.6,29.85,SSE,167,2.0,4.0,65,0.00,,,0.00,Wunderground v.1.15,2013-10-20 20:57:00,
2013-10-20 14:02:00,67.6,55.4,29.84,WNW,297,2.0,2.0,65,0.00,,,0.00,Wunderground v.1.15,2013-10-20 21:02:00,
2013-10-20 14:07:00,67.3,55.5,29.84,WSW,246,0.0,5.0,66,0.00,,,0.00,Wunderground v.1.15,2013-10-20 21:07:00,
2013-10-20 14:12:00,67.4,55.6,29.84,WSW,246,0.0,1.0,66,0.00,,,0.00,Wunderground v.1.15,2013-10-20 21:12:00,
2013-10-20 14:17:00,66.4,54.3,29.84,West,262,3.0,8.0,65,0.00,,,0.00,Wunderground v.1.15,2013-10-20 21:17:00,
2013-10-20 14:22:00,65.0,54.6,29.84,SSE,162,0.0,3.0,69,0.00,,,0.00,Wunderground v.1.15,2013-10-20 21:22:00,
2013-10-20 14:27:00,64.8,54.4,29.84,South,181,0.0,5.0,69,0.00,,,0.00,Wunderground v.1.15,2013-10-20 21:27:00,
2013-10-20 14:32:00,63.9,54.3,29.84,WSW,256,0.0,4.0,71,0.00,,,0.00,Wunderground v.1.15,2013-10-20 21:32:00,
2013-10-20 14:37:00,63.2,54.0,29.84,WNW,293,0.0,4.0,72,0.00,,,0.00,Wunderground v.1.15,2013-10-20 21:37:00,
2013-10-20 14:42:00,62.7,53.9,29.84,SW,235,0.0,1.0,73,0.00,,,0.00,Wunderground v.1.15,2013-10-20 21:42:00,
2013-10-20 14:47:00,62.4,54.4,29.84,North,1,2.0,3.0,75,0.00,,,0.00,Wunderground v.1.15,2013-10-20 21:47:00,
2013-10-20 14:52:00,62.0,54.0,29.84,NNW,338,1.0,4.0,75,0.00,,,0.00,Wunderground v.1.15,2013-10-20 21:52:00,
2013-10-20 14:57:00,61.6,54.0,29.84,North,0,0.0,4.0,76,0.00,,,0.00,Wunderground v.1.15,2013-10-20 21:57:00,
2013-10-20 15:02:00,61.8,53.8,29.84,SSE,162,0.0,1.0,75,0.00,,,0.00,Wunderground v.1.15,2013-10-20 22:02:00,
2013-10-20 15:08:00,61.8,54.2,29.84,SW,229,0.0,2.0,76,0.00,,,0.00,Wunderground v.1.15,2013-10-20 22:08:00,
2013-10-20 15:13:00,61.6,54.0,29.84,WSW,251,0.0,2.0,76,0.00,,,0.00,Wunderground v.1.15,2013-10-20 22:13:00,
2013-10-20 15:18:00,61.3,53.7,29.84,WSW,254,1.0,5.0,76,0.00,,,0.00,Wunderground v.1.15,2013-10-20 22:18:00,
2013-10-20 15:23:00,61.2,53.9,29.84,WNW,295,0.0,2.0,77,0.00,,,0.00,Wunderground v.1.15,2013-10-20 22:23:00,
2013-10-20 15:28:00,61.3,54.0,29.84,NNW,337,0.0,3.0,77,0.00,,,0.00,Wunderground v.1.15,2013-10-20 22:28:00,
2013-10-20 15:33:00,61.5,54.2,29.84,WSW,246,1.0,2.0,77,0.00,,,0.00,Wunderground v.1.15,2013-10-20 22:33:00,
2013-10-20 15:38:00,61.8,54.5,29.84,West,279,0.0,4.0,77,0.00,,,0.00,Wunderground v.1.15,2013-10-20 22:38:00,
2013-10-20 15:43:00,61.8,54.2,29.84,WNW,297,0.0,3.0,76,0.00,,,0.00,Wunderground v.1.15,2013-10-20 22:43:00,
2013-10-20 15:48:00,61.2,53.9,29.84,NE,45,1.0,5.0,77,0.00,,,0.00,Wunderground v.1.15,2013-10-20 22:48:00,
2013-10-20 15:53:00,60.9,54.0,29.84,NE,45,0.0,2.0,78,0.00,,,0.00,Wunderground v.1.15,2013-10-20 22:53:00,
2013-10-20 15:58:00,60.4,53.9,29.84,NNW,342,0.0,3.0,79,0.00,,,0.00,Wunderground v.1.15,2013-10-20 22:58:00,
2013-10-20 16:03:00,60.2,53.7,29.84,SW,226,2.0,3.0,79,0.00,,,0.00,Wunderground v.1.15,2013-10-20 23:03:00,
2013-10-20 16:08:00,59.8,53.6,29.84,WSW,242,0.0,4.0,80,0.00,,,0.00,Wunderground v.1.15,2013-10-20 23:08:00,
2013-10-20 16:13:00,59.5,53.7,29.84,ESE,107,1.0,3.0,81,0.00,,,0.00,Wunderground v.1.15,2013-10-20 23:13:00,
2013-10-20 16:18:00,59.2,53.7,29.84,ENE,72,0.0,3.0,82,0.00,,,0.00,Wunderground v.1.15,2013-10-20 23:18:00,
2013-10-20 16:23:00,58.9,54.1,29.84,North,359,1.0,1.0,84,0.00,,,0.00,Wunderground v.1.15,2013-10-20 23:23:00,
2013-10-20 16:28:00,58.6,53.8,29.84,SSE,148,1.0,4.0,84,0.00,,,0.00,Wunderground v.1.15,2013-10-20 23:28:00,
2013-10-20 16:33:00,58.3,53.8,29.84,SE,138,0.0,6.0,85,0.00,,,0.00,Wunderground v.1.15,2013-10-20 23:33:00,
2013-10-20 16:38:00,58.1,53.9,29.84,East,83,1.0,6.0,86,0.00,,,0.00,Wunderground v.1.15,2013-10-20 23:38:00,
2013-10-20 16:43:00,58.1,53.9,29.84,SSE,157,0.0,2.0,86,0.00,,,0.00,Wunderground v.1.15,2013-10-20 23:43:00,
2013-10-20 16:48:00,58.1,53.9,29.84,NNW,328,3.0,3.0,86,0.00,,,0.00,Wunderground v.1.15,2013-10-20 23:48:00,
2013-10-20 16:53:00,58.1,53.9,29.84,North,11,2.0,3.0,86,0.00,,,0.00,Wunderground v.1.15,2013-10-20 23:53:00,
2013-10-20 16:58:00,58.0,53.8,29.84,North,349,1.0,3.0,86,0.00,,,0.00,Wunderground v.1.15,2013-10-20 23:58:00,
2013-10-20 17:03:00,57.8,54.0,29.83,SW,226,0.0,3.0,87,0.00,,,0.00,Wunderground v.1.15,2013-10-21 00:03:00,
2013-10-20 17:08:00,57.6,53.8,29.83,SW,226,0.0,3.0,87,0.00,,,0.00,Wunderground v.1.15,2013-10-21 00:08:00,
2013-10-20 17:13:00,57.5,54.0,29.83,NNE,15,0.0,2.0,88,0.00,,,0.00,Wunderground v.1.15,2013-10-21 00:13:00,
2013-10-20 17:18:00,57.3,53.8,29.84,ENE,75,0.0,2.0,88,0.00,,,0.00,Wunderground v.1.15,2013-10-21 00:18:00,
2013-10-20 17:23:00,57.2,54.0,29.84,ENE,75,0.0,2.0,89,0.00,,,0.00,Wunderground v.1.15,2013-10-21 00:23:00,
2013-10-20 17:28:00,56.9,53.7,29.84,ENE,75,0.0,2.0,89,0.00,,,0.00,Wunderground v.1.15,2013-10-21 00:28:00,
2013-10-20 17:33:00,56.7,53.8,29.83,ENE,75,0.0,1.0,90,0.00,,,0.00,Wunderground v.1.15,2013-10-21 00:33:00,
2013-10-20 17:38:00,56.6,53.7,29.83,ENE,75,0.0,2.0,90,0.00,,,0.00,Wunderground v.1.15,2013-10-21 00:38:00,
2013-10-20 17:43:00,56.5,53.9,29.83,ENE,75,1.0,2.0,91,0.00,,,0.00,Wunderground v.1.15,2013-10-21 00:43:00,
2013-10-20 17:48:00,56.3,53.7,29.84,ENE,75,0.0,2.0,91,0.00,,,0.00,Wunderground v.1.15,2013-10-21 00:48:00,
2013-10-20 17:53:00,56.0,53.4,29.84,WNW,297,1.0,2.0,91,0.00,,,0.00,Wunderground v.1.15,2013-10-21 00:53:00,
2013-10-20 17:58:00,55.9,53.6,29.84,WNW,297,0.0,2.0,92,0.00,,,0.00,Wunderground v.1.15,2013-10-21 00:58:00,
2013-10-20 18:03:00,55.7,53.4,29.84,WNW,297,0.0,1.0,92,0.00,,,0.00,Wunderground v.1.15,2013-10-21 01:03:00,
2013-10-20 18:08:00,55.4,53.1,29.84,WNW,297,0.0,1.0,92,0.00,,,0.00,Wunderground v.1.15,2013-10-21 01:08:00,
2013-10-20 18:13:00,55.1,52.8,29.84,WNW,297,0.0,0.0,92,0.00,,,0.00,Wunderground v.1.15,2013-10-21 01:13:00,
2013-10-20 18:18:00,55.0,53.0,29.84,WNW,297,0.0,1.0,93,0.00,,,0.00,Wunderground v.1.15,2013-10-21 01:18:00,
2013-10-20 18:23:00,54.8,52.8,29.84,WNW,297,0.0,1.0,93,0.00,,,0.00,Wunderground v.1.15,2013-10-21 01:23:00,
2013-10-20 18:28:00,54.7,53.0,29.84,WNW,297,0.0,3.0,94,0.00,,,0.00,Wunderground v.1.15,2013-10-21 01:28:00,
2013-10-20 18:33:00,54.5,53.1,29.85,WNW,297,0.0,1.0,95,0.00,,,0.00,Wunderground v.1.15,2013-10-21 01:33:00,
2013-10-20 18:38:00,54.4,53.0,29.85,WNW,297,0.0,1.0,95,0.00,,,0.00,Wunderground v.1.15,2013-10-21 01:38:00,
2013-10-20 18:43:00,54.4,53.0,29.85,WNW,297,0.0,0.0,95,0.00,,,0.00,Wunderground v.1.15,2013-10-21 01:43:00,
2013-10-20 18:48:00,54.2,53.1,29.86,WNW,297,0.0,0.0,96,0.00,,,0.00,Wunderground v.1.15,2013-10-21 01:48:00,
2013-10-20 18:54:00,54.1,53.0,29.86,WNW,297,0.0,0.0,96,0.00,,,0.00,Wunderground v.1.15,2013-10-21 01:54:00,
2013-10-20 18:59:00,54.1,53.0,29.86,WNW,297,0.0,1.0,96,0.00,,,0.00,Wunderground v.1.15,2013-10-21 01:59:00,
2013-10-20 19:04:00,53.9,52.8,29.86,WNW,297,0.0,0.0,96,0.00,,,0.00,Wunderground v.1.15,2013-10-21 02:04:00,
2013-10-20 19:09:00,53.9,52.8,29.86,WNW,297,0.0,0.0,96,0.00,,,0.00,Wunderground v.1.15,2013-10-21 02:09:00,
2013-10-20 19:14:00,53.9,53.1,29.86,WNW,297,0.0,0.0,97,0.00,,,0.00,Wunderground v.1.15,2013-10-21 02:14:00,
2013-10-20 19:19:00,53.8,53.0,29.86,WNW,297,0.0,0.0,97,0.00,,,0.00,Wunderground v.1.15,2013-10-21 02:19:00,
2013-10-20 19:24:00,53.6,52.8,29.86,WNW,297,0.0,0.0,97,0.00,,,0.00,Wunderground v.1.15,2013-10-21 02:24:00,
2013-10-20 19:29:00,53.5,52.7,29.86,WNW,297,0.0,0.0,97,0.00,,,0.00,Wunderground v.1.15,2013-10-21 02:29:00,
2013-10-20 19:34:00,53.3,52.5,29.86,WNW,297,0.0,0.0,97,0.00,,,0.00,Wunderground v.1.15,2013-10-21 02:34:00,
2013-10-20 19:39:00,53.2,52.4,29.86,WNW,297,0.0,0.0,97,0.00,,,0.00,Wunderground v.1.15,2013-10-21 02:39:00,
2013-10-20 19:44:00,53.1,52.3,29.86,WNW,297,0.0,0.0,97,0.00,,,0.00,Wunderground v.1.15,2013-10-21 02:44:00,
2013-10-20 19:49:00,52.9,52.1,29.86,WNW,297,0.0,0.0,97,0.00,,,0.00,Wunderground v.1.15,2013-10-21 02:49:00,
2013-10-20 19:54:00,52.8,52.3,29.86,WNW,297,0.0,0.0,98,0.00,,,0.00,Wunderground v.1.15,2013-10-21 02:54:00,
2013-10-20 19:59:00,52.6,52.1,29.86,WNW,297,0.0,0.0,98,0.00,,,0.00,Wunderground v.1.15,2013-10-21 02:59:00,
2013-10-20 20:04:00,52.5,52.0,29.86,WNW,297,0.0,0.0,98,0.00,,,0.00,Wunderground v.1.15,2013-10-21 03:04:00,
2013-10-20 20:09:00,52.3,51.8,29.86,WNW,297,0.0,0.0,98,0.00,,,0.00,Wunderground v.1.15,2013-10-21 03:09:00,
2013-10-20 20:14:00,52.0,51.5,29.86,WNW,297,0.0,0.0,98,0.00,,,0.00,Wunderground v.1.15,2013-10-21 03:14:00,
2013-10-20 20:19:00,51.7,51.2,29.86,WNW,297,0.0,0.0,98,0.00,,,0.00,Wunderground v.1.15,2013-10-21 03:19:00,
2013-10-20 20:24:00,51.4,50.9,29.86,WNW,297,0.0,0.0,98,0.00,,,0.00,Wunderground v.1.15,2013-10-21 03:24:00,
2013-10-20 20:29:00,51.3,50.8,29.86,WNW,297,0.0,0.0,98,0.00,,,0.00,Wunderground v.1.15,2013-10-21 03:29:00,
2013-10-20 20:34:00,51.0,50.5,29.86,WNW,297,0.0,0.0,98,0.00,,,0.00,Wunderground v.1.15,2013-10-21 03:34:00,
2013-10-20 20:39:00,50.8,50.3,29.86,WNW,297,0.0,0.0,98,0.00,,,0.00,Wunderground v.1.15,2013-10-21 03:39:00,
2013-10-20 20:44:00,50.8,50.3,29.86,WNW,297,0.0,0.0,98,0.00,,,0.00,Wunderground v.1.15,2013-10-21 03:44:00,
2013-10-20 20:49:00,50.8,50.5,29.86,WNW,297,0.0,0.0,99,0.00,,,0.00,Wunderground v.1.15,2013-10-21 03:49:00,
2013-10-20 20:54:00,51.1,50.8,29.86,WNW,297,0.0,0.0,99,0.00,,,0.00,Wunderground v.1.15,2013-10-21 03:54:00,
2013-10-20 20:59:00,51.3,51.0,29.86,WNW,297,0.0,0.0,99,0.00,,,0.00,Wunderground v.1.15,2013-10-21 03:59:00,
2013-10-20 21:01:00,51.3,51.0,29.86,WNW,297,0.0,0.0,99,0.00,,,0.00,Wunderground v.1.15,2013-10-21 04:01:00,
2013-10-20 21:02:00,51.3,51.0,29.86,WNW,297,0.0,0.0,99,0.00,,,0.00,Wunderground v.1.15,2013-10-21 04:02:00,
2013-10-20 21:03:00,51.3,51.0,29.86,WNW,297,0.0,0.0,99,0.00,,,0.00,Wunderground v.1.15,2013-10-21 04:03:00,
2013-10-20 21:08:00,51.6,51.3,29.86,WNW,297,0.0,0.0,99,0.00,,,0.00,Wunderground v.1.15,2013-10-21 04:08:00,
2013-10-20 21:13:00,51.7,51.7,29.86,WNW,297,0.0,0.0,100,0.00,,,0.00,Wunderground v.1.15,2013-10-21 04:13:00,
2013-10-20 21:18:00,51.7,51.7,29.87,WNW,297,0.0,0.0,100,0.00,,,0.00,Wunderground v.1.15,2013-10-21 04:18:00,
2013-10-20 21:23:00,51.9,51.9,29.87,WNW,297,0.0,0.0,100,0.00,,,0.00,Wunderground v.1.15,2013-10-21 04:23:00,
2013-10-20 21:28:00,52.0,52.0,29.87,WNW,297,0.0,0.0,100,0.00,,,0.00,Wunderground v.1.15,2013-10-21 04:28:00,
2013-10-20 21:33:00,52.6,52.6,29.87,WNW,297,0.0,0.0,100,0.00,,,0.00,Wunderground v.1.15,2013-10-21 04:33:00,
2013-10-20 21:38:00,52.9,52.9,29.87,WNW,297,0.0,0.0,100,0.00,,,0.00,Wunderground v.1.15,2013-10-21 04:38:00,
2013-10-20 21:43:00,53.1,53.1,29.87,WNW,297,0.0,0.0,100,0.00,,,0.00,Wunderground v.1.15,2013-10-21 04:43:00,
2013-10-20 21:48:00,53.3,53.3,29.87,WNW,297,0.0,1.0,100,0.00,,,0.00,Wunderground v.1.15,2013-10-21 04:48:00,
2013-10-20 21:53:00,53.5,53.5,29.87,WNW,297,0.0,1.0,100,0.00,,,0.00,Wunderground v.1.15,2013-10-21 04:53:00,
2013-10-20 21:58:00,53.5,53.5,29.87,WNW,297,0.0,1.0,100,0.00,,,0.00,Wunderground v.1.15,2013-10-21 04:58:00,
2013-10-20 22:03:00,53.5,53.5,29.87,WNW,297,1.0,2.0,100,0.00,,,0.00,Wunderground v.1.15,2013-10-21 05:03:00,
2013-10-20 22:08:00,53.5,53.5,29.87,WNW,297,0.0,2.0,100,0.00,,,0.00,Wunderground v.1.15,2013-10-21 05:08:00,
2013-10-20 22:13:00,53.5,53.5,29.87,NE,52,0.0,0.0,100,0.00,,,0.00,Wunderground v.1.15,2013-10-21 05:13:00,
2013-10-20 22:18:00,53.5,53.5,29.87,NE,52,0.0,0.0,100,0.00,,,0.00,Wunderground v.1.15,2013-10-21 05:18:00,
2013-10-20 22:23:00,53.5,53.5,29.87,NE,52,0.0,0.0,100,0.00,,,0.00,Wunderground v.1.15,2013-10-21 05:23:00,
2013-10-20 22:28:00,53.5,53.5,29.87,NE,52,0.0,0.0,100,0.00,,,0.00,Wunderground v.1.15,2013-10-21 05:28:00,
2013-10-20 22:33:00,53.5,53.5,29.87,NE,52,0.0,0.0,100,0.00,,,0.00,Wunderground v.1.15,2013-10-21 05:33:00,
2013-10-20 22:38:00,53.3,53.3,29.87,NE,52,0.0,0.0,100,0.00,,,0.00,Wunderground v.1.15,2013-10-21 05:38:00,
2013-10-20 22:43:00,53.3,53.3,29.87,NE,52,0.0,0.0,100,0.00,,,0.00,Wunderground v.1.15,2013-10-21 05:43:00,
2013-10-20 22:48:00,53.3,53.3,29.87,NE,52,0.0,0.0,100,0.00,,,0.00,Wunderground v.1.15,2013-10-21 05:48:00,
2013-10-20 22:53:00,53.3,53.3,29.87,NE,52,0.0,0.0,100,0.00,,,0.00,Wunderground v.1.15,2013-10-21 05:53:00,
2013-10-20 22:58:00,53.3,53.3,29.87,NE,52,0.0,1.0,100,0.00,,,0.00,Wunderground v.1.15,2013-10-21 05:58:00,
2013-10-20 23:03:00,53.3,53.3,29.87,NE,52,0.0,0.0,100,0.00,,,0.00,Wunderground v.1.15,2013-10-21 06:03:00,
2013-10-20 23:08:00,53.3,53.3,29.87,NE,52,0.0,0.0,100,0.00,,,0.00,Wunderground v.1.15,2013-10-21 06:08:00,
2013-10-20 23:13:00,53.3,53.3,29.87,NE,52,0.0,1.0,100,0.00,,,0.00,Wunderground v.1.15,2013-10-21 06:13:00,
2013-10-20 23:18:00,53.3,53.3,29.87,NE,52,1.0,2.0,100,0.00,,,0.00,Wunderground v.1.15,2013-10-21 06:18:00,
2013-10-20 23:23:00,53.3,53.3,29.87,NE,52,0.0,0.0,100,0.00,,,0.00,Wunderground v.1.15,2013-10-21 06:23:00,
2013-10-20 23:28:00,53.3,53.3,29.87,NE,52,0.0,0.0,100,0.00,,,0.00,Wunderground v.1.15,2013-10-21 06:28:00,
2013-10-20 23:33:00,53.3,53.3,29.87,NE,52,0.0,0.0,100,0.00,,,0.00,Wunderground v.1.15,2013-10-21 06:33:00,
2013-10-20 23:38:00,53.2,53.2,29.87,NE,52,0.0,0.0,100,0.00,,,0.00,Wunderground v.1.15,2013-10-21 06:38:00,
2013-10-20 23:43:00,53.2,53.2,29.87,NE,52,1.0,2.0,100,0.00,,,0.00,Wunderground v.1.15,2013-10-21 06:43:00,
2013-10-20 23:48:00,53.2,53.2,29.87,NE,52,0.0,2.0,100,0.00,,,0.00,Wunderground v.1.15,2013-10-21 06:48:00,
2013-10-20 23:53:00,53.1,53.1,29.87,NE,52,0.0,0.0,100,0.00,,,0.00,Wunderground v.1.15,2013-10-21 06:53:00,
2013-10-20 23:58:00,53.1,53.1,29.87,NE,52,0.0,1.0,100,0.00,,,0.00,Wunderground v.1.15,2013-10-21 06:58:00,